Tracking 29892 objects as of 21-Nov-2024
HD Live streaming from Space Station
objects crossing your sky now

SL-8 R/B

Track SL-8 R/B now!
10-day predictions


NORAD ID: 21153
Int'l Code: 1991-019B
Perigee: 962.1 km
Apogee: 1,006.6 km
Inclination: 82.9 °
Period: 104.6 minutes
Semi major axis: 7355 km
RCS: 5.5106 m2 (large)
Launch date: March 12, 1991
Source: Commonwealth of Independent States (former USSR) (CIS)
Launch site: PLESETSK MISSILE AND SPACE COMPLEX (PKMTR)

Note: This is a ROCKET BODY
Your satellite tracking list
Your tracking list is empty




NASA's NSSDC Master Catalog

Two Line Element Set (TLE):
1 21153U 91019B   24325.54496747  .00000190  00000-0  17878-3 0  9998
2 21153  82.9249 343.9553 0030236 128.3770  35.7136 13.76249030691547
Source of the keplerian elements: AFSPC